Flag for Germany Weather past 2 weeks in Varel, Lower Saxony, Germany

Now
48 °F

Scattered clouds.


Feels Like: 45 °F
Forecast: 46 / 58 °F
Wind: 8 mph from West

Location: Wittmundhaven

Current Time: May 26, 2015 at 7:56:23 AM

Latest Report: May 26, 2015 at 7:20 AM


Visibility: N/A

Pressure: 30.01 "Hg

Humidity: 82%

Dew point: 43 °F

Location of VarelLocation

Historic Weather in Varel — Graph

°F

Varel temperature yesterday

Maximum temperature yesterday: 57 °F (at 4:20 PM)
Minimum temperature yesterday: 48 °F (at 10:20 PM)
Average temperature yesterday: 53 °F

Past Weeks' High & Low Weather Summary

 TemperatureHumidityPressure
High75 °F (May 11, 4:20 PM)94% (May 12, 2:20 AM)30.30 "Hg (May 12, 2:20 AM)
Low37 °F (May 15, 3:20 AM)39% (May 11, 4:20 PM)29.53 "Hg (May 18, 9:20 PM)
Average51 °F74%30.02 "Hg
* Reported May 11 6:20 AM — May 26 6:20 AM, Varel, Weather by CustomWeather, © 2015

Note: Actual official high and low records may vary slightly from our data, if they occured in-between our weather recording intervals... More about our weather records

Advertising

Varel weather history for previous 24 hours

 ConditionsComfort  
Time TempWeatherWind HumidityBarometerVisibility
6:20 AM
Tue, May 26
46 °FScattered clouds.6 mph82%30.01 "HgN/A
5:20 AM46 °FPassing clouds.6 mph82%30.01 "HgN/A
4:20 AM48 °FPassing clouds.8 mph82%30.01 "HgN/A
3:20 AM48 °FPartly cloudy.6 mph82%30.01 "HgN/A
2:20 AM46 °FPassing clouds.6 mph87%30.01 "HgN/A
1:20 AM48 °FPassing clouds.7 mph82%30.01 "HgN/A
12:20 AM48 °FPartly cloudy.7 mph87%30.01 "HgN/A
11:20 PM
Mon, May 25
48 °FPartly cloudy.8 mph87%29.98 "HgN/A
10:20 PM48 °FBroken clouds.3 mph87%29.98 "HgN/A
9:20 PM50 °FSprinkles. Broken clouds.6 mph82%29.98 "HgN/A
8:20 PM52 °FBroken clouds.6 mph77%29.98 "HgN/A
7:20 PM54 °FPartly sunny.14 mph63%29.98 "HgN/A
6:20 PM55 °FPartly sunny.8 mph55%29.95 "HgN/A
5:20 PM57 °FPassing clouds.8 mph55%29.95 "HgN/A
4:20 PM57 °FScattered clouds.10 mph59%29.98 "HgN/A
3:20 PM55 °FScattered clouds.12 mph59%29.98 "HgN/A
2:20 PM55 °FScattered clouds.10 mph63%29.98 "HgN/A
1:20 PM55 °FScattered clouds.9 mph59%29.98 "HgN/A
12:20 PM55 °FScattered clouds.9 mph63%29.98 "HgN/A
11:20 AM54 °FPartly sunny.10 mph67%29.98 "HgN/A
10:20 AM52 °FPartly sunny.10 mph72%29.98 "HgN/A
9:20 AM50 °FBroken clouds.8 mph88%29.98 "HgN/A
8:20 AM52 °FPartly sunny.10 mph82%29.95 "HgN/A
7:20 AM50 °FPartly sunny.7 mph88%29.95 "HgN/A
Weather by CustomWeather, © 2015

See weather overviewHow to use our weather pages